Location: Volkssternwarte_EN
(51.3230°N, 7.4010°E)
Time: 06:54:25
(UTC+01:00)

BlueWalker 3 - Pass Details

Date: 08 December 2022
Orbit: 499 x 517 km, 53.2° (Epoch: 28 January)

Event Time Altitude Azimuth Distance (km) Brightness Sun altitude
Rises 20:00:29 0° 285° (WNW) 2,624 6.6 -32.8°
Reaches altitude 10° 20:03:28 10° 261° (W) 1,728 5.4 -33.2°
Enters shadow 20:04:27 13° 247° (WSW) 1,543 5.0 -33.4°
